Location: *
(53.4003°S, 165.3236°W)
Time: 02:07:33
(UTC+00:00)

Cosmos 2219 Rocket - Pass Details

Date: 11 December 2023
Orbit: 828 x 845 km, 71.0° (Epoch: 24 February)

Event Time Altitude Azimuth Distance (km) Brightness Sun altitude
Rises 12:08:22 0° 215° (SW) 3,411 5.9 -11.9°
Reaches altitude 10° 12:10:55 10° 221° (SW) 2,472 5.1 -11.8°
Maximum altitude 12:16:15 44° 291° (WNW) 1,157 2.6 -11.6°
Enters shadow 12:20:51 14° 358° (N) 2,210 3.8 -11.3°
